Date String (YYYY-MM-DD hh:mm:ss) UTC,Instrument flags,absolute air pressure of the measurement (hPa),sample flow rate (lpm),inlet stack bypass flow (lpm),air temperature of the measurement (°C),ambient temperature measured by the external sensor (°C),aerosol sample conditioner tube jacket temperature (°C),OPC LED temperature (°C),internal box temperature (°C),relative humidity of the measurement (%),span deviation,mass concentration of particles derived from Lorenz-Mie calculation of OPC scattering (μg/m³),mass concentration of particles derived from Lorenz-Mie calculation of OPC scattering (μg/m³),mass concentration of particles derived from Lorenz-Mie calculation of OPC scattering (μg/m³)
DateTimeUTC,F1_M11,P_M11,Q1_M11,Q2_M11,T1_M11,T2_M11,T3_M11,T4_M11,T5_M11,U1_M11,ZSPAN_M11,X0_M11,X2_M11,X1_M11
2023-07-07 18:00:00,SystemResetWarning,0832.1,4.99,000.00,028.8,025.9,000.0,037.2,030.2,29.1,0000.0,0008.61,0004.74,0004.29
2023-07-07 18:01:00,SystemResetWarning,0832.1,5.00,000.00,028.8,026.2,000.0,037.2,030.3,29.4,0000.0,0008.60,0004.71,0004.27
2023-07-07 18:02:00,SystemResetWarning,0832.1,5.01,000.00,028.8,026.6,000.0,037.3,030.3,30.2,0000.0,0008.55,0004.70,0004.24
2023-07-07 18:03:00,SystemResetWarning,0832.2,5.00,000.00,028.8,026.9,000.0,037.3,030.4,29.3,0000.0,0008.24,0004.67,0004.19
2023-07-07 18:04:00,SystemResetWarning,0832.2,4.98,000.00,028.9,027.2,000.0,037.3,030.5,29.0,0000.0,0008.17,0004.61,0004.15
2023-07-07 18:05:00,SystemResetWarning,0832.2,5.01,000.00,028.9,027.4,000.0,037.3,030.5,29.4,0000.0,0007.96,0004.58,0004.12
2023-07-07 18:06:00,SystemResetWarning,0832.2,5.01,000.00,028.9,027.6,000.0,037.3,030.6,30.7,0000.0,0007.86,0004.56,0004.11
2023-07-07 18:07:00,SystemResetWarning,0832.2,5.00,000.00,029.0,027.7,000.0,037.4,030.7,30.3,0000.0,0007.98,0004.53,0004.09
2023-07-07 18:08:00,SystemResetWarning,0832.2,4.98,000.00,029.0,026.6,000.0,037.3,030.6,30.9,0000.0,0008.24,0004.48,0004.07
2023-07-07 18:09:00,SystemResetWarning,0832.1,5.01,000.00,028.9,025.1,000.0,037.1,030.4,30.1,0000.0,0008.16,0004.43,0004.05
2023-07-07 18:10:00,SystemResetWarning,0832.1,5.01,000.00,028.9,024.7,000.0,037.1,030.2,30.1,0000.0,0008.01,0004.39,0004.03
2023-07-07 18:11:00,SystemResetWarning,0832.1,5.00,000.00,028.8,024.9,000.0,037.1,030.0,28.2,0000.0,0007.99,0004.38,0004.02
2023-07-07 18:12:00,SystemResetWarning,0832.1,5.00,000.00,028.7,025.4,000.0,037.1,030.0,28.9,0000.0,0007.95,0004.36,0004.00
2023-07-07 18:13:00,SystemResetWarning,0832.2,5.00,000.00,028.7,025.8,000.0,037.2,030.1,28.1,0000.0,0007.92,0004.33,0003.98
2023-07-07 18:14:00,SystemResetWarning,0832.2,5.01,000.00,028.7,026.2,000.0,037.2,030.2,27.4,0000.0,0007.72,0004.28,0003.97
2023-07-07 18:15:00,SystemResetWarning,0832.2,5.00,000.00,028.7,026.6,000.0,037.2,030.3,27.3,0000.0,0007.61,0004.25,0003.94
2023-07-07 18:16:00,SystemResetWarning,0832.2,4.99,000.00,028.7,026.9,000.0,037.2,030.3,27.4,0000.0,0007.62,0004.22,0003.90
2023-07-07 18:17:00,SystemResetWarning,0832.2,4.99,000.00,028.8,027.1,000.0,037.2,030.4,27.6,0000.0,0007.63,0004.19,0003.86
2023-07-07 18:18:00,SystemResetWarning,0832.2,5.00,000.00,028.8,027.4,000.0,037.3,030.5,29.2,0000.0,0007.84,0004.16,0003.81
2023-07-07 18:19:00,SystemResetWarning,0832.2,5.01,000.00,028.9,027.6,000.0,037.3,030.5,27.7,0000.0,0007.53,0004.13,0003.77
2023-07-07 18:20:00,SystemResetWarning,0832.2,5.01,000.00,028.9,027.7,000.0,037.3,030.6,27.7,0000.0,0007.35,0004.13,0003.74
2023-07-07 18:21:00,SystemResetWarning,0832.2,5.00,000.00,029.0,027.7,000.0,037.3,030.7,28.4,0000.0,0007.40,0004.10,0003.72
2023-07-07 18:22:00,SystemResetWarning,0832.2,4.98,000.00,029.0,026.4,000.0,037.2,030.5,28.6,0000.0,0007.65,0004.08,0003.70
2023-07-07 18:23:00,SystemResetWarning,0832.2,5.02,000.00,028.9,024.9,000.0,037.1,030.3,27.2,0000.0,0007.65,0004.03,0003.67
2023-07-07 18:24:00,SystemResetWarning,0832.2,5.01,000.00,028.8,024.6,000.0,037.0,030.1,27.2,0000.0,0007.57,0004.01,0003.64
2023-07-07 18:25:00,SystemResetWarning,0832.1,5.00,000.00,028.7,024.9,000.0,037.1,030.0,27.2,0000.0,0007.59,0004.00,0003.61
2023-07-07 18:26:00,SystemResetWarning,0832.1,4.99,000.00,028.7,025.4,000.0,037.1,030.0,28.0,0000.0,0007.73,0003.98,0003.60
2023-07-07 18:27:00,SystemResetWarning,0832.1,5.00,000.00,028.7,025.8,000.0,037.1,030.1,28.4,0000.0,0007.72,0003.97,0003.60
2023-07-07 18:28:00,SystemResetWarning,0832.1,5.00,000.00,028.7,026.2,000.0,037.1,030.2,27.2,0000.0,0007.49,0003.93,0003.60
2023-07-07 18:29:00,SystemResetWarning,0832.1,5.01,000.00,028.7,026.6,000.0,037.1,030.2,28.0,0000.0,0007.19,0003.94,0003.60
2023-07-07 18:30:00,SystemResetWarning,0832.2,5.00,000.00,028.7,026.9,000.0,037.2,030.3,29.8,-001.1,0007.12,0003.94,0003.61
2023-07-07 18:31:00,SystemResetWarning,0832.1,4.99,000.00,028.7,027.1,000.0,037.2,030.4,28.8,-001.3,0008.06,0003.93,0003.62
2023-07-07 18:32:00,SystemResetWarning,0832.1,4.98,000.00,028.8,027.4,000.0,037.2,030.4,29.1,-001.0,0008.61,0003.97,0003.62
2023-07-07 18:33:00,SystemResetWarning,0832.2,5.01,000.00,028.8,027.6,000.0,037.2,030.5,29.2,-001.2,0008.39,0004.00,0003.64
2023-07-07 18:34:00,SystemResetWarning,0832.2,5.01,000.00,028.9,027.7,000.0,037.2,030.6,28.5,-001.4,0008.36,0004.02,0003.66
2023-07-07 18:35:00,SystemResetWarning,0832.1,4.99,000.00,028.9,027.9,000.0,037.3,030.6,28.6,-001.4,0008.63,0004.03,0003.68
2023-07-07 18:36:00,SystemResetWarning,0832.0,4.99,000.00,029.0,027.2,000.0,037.2,030.6,28.3,-001.2,0008.91,0004.07,0003.73
2023-07-07 18:37:00,SystemResetWarning,0832.1,5.01,000.00,028.9,025.5,000.0,037.1,030.5,29.6,-001.5,0008.86,0004.13,0003.78
2023-07-07 18:38:00,SystemResetWarning,0832.1,5.00,000.00,028.8,024.7,000.0,037.0,030.3,28.2,-001.8,0009.00,0004.21,0003.82
2023-07-07 18:39:00,SystemResetWarning,0832.0,5.01,000.00,028.7,024.8,000.0,037.0,030.0,28.6,-001.9,0009.50,0004.30,0003.87
2023-07-07 18:40:00,SystemResetWarning,0832.0,5.01,000.00,028.7,025.2,000.0,037.1,030.0,29.1,-001.8,0010.94,0004.35,0003.92
2023-07-07 18:41:00,SystemResetWarning,0832.0,5.00,000.00,028.6,025.7,000.0,037.1,030.1,28.7,-001.3,0011.56,0004.38,0003.96
2023-07-07 18:42:00,SystemResetWarning,0832.1,5.00,000.00,028.7,026.1,000.0,037.1,030.1,29.1,-001.5,0011.56,0004.41,0003.99
2023-07-07 18:43:00,SystemResetWarning,0832.1,5.00,000.00,028.7,026.5,000.0,037.1,030.2,28.1,-001.6,0010.77,0004.39,0004.00
2023-07-07 18:44:00,SystemResetWarning,0832.2,4.99,000.00,028.7,026.8,000.0,037.2,030.3,28.2,-001.0,0010.75,0004.38,0004.01
2023-07-07 18:45:00,SystemResetWarning,0832.2,5.00,000.00,028.7,027.1,000.0,037.2,030.4,28.8,-001.1,0010.72,0004.38,0004.02
2023-07-07 18:46:00,SystemResetWarning,0832.2,5.01,000.00,028.8,027.3,000.0,037.2,030.4,27.7,-001.1,0010.53,0004.38,0004.02
2023-07-07 18:47:00,SystemResetWarning,0832.2,5.01,000.00,028.8,027.5,000.0,037.2,030.5,29.0,-000.9,0010.18,0004.36,0003.98
2023-07-07 18:48:00,SystemResetWarning,0832.2,4.99,000.00,028.9,027.7,000.0,037.2,030.6,29.0,-000.7,0010.32,0004.32,0003.94
2023-07-07 18:49:00,SystemResetWarning,0832.2,4.99,000.00,028.9,027.5,000.0,037.2,030.6,28.2,-001.0,0010.35,0004.30,0003.91
2023-07-07 18:50:00,SystemResetWarning,0832.2,5.00,000.00,028.9,026.0,000.0,037.1,030.5,29.3,-001.1,0010.32,0004.27,0003.88
2023-07-07 18:51:00,SystemResetWarning,0832.2,5.01,000.00,028.9,025.5,000.0,037.0,030.4,29.0,0000.0,0009.02,0004.21,0003.83
2023-07-07 18:52:00,SystemResetWarning,0832.2,5.01,000.00,028.8,025.6,000.0,037.1,030.2,27.8,0000.0,0008.30,0004.15,0003.79
2023-07-07 18:53:00,SystemResetWarning,0832.1,4.99,000.00,028.7,025.9,000.0,037.1,030.2,28.9,-000.5,0007.41,0004.11,0003.76
2023-07-07 18:54:00,SystemResetWarning,0832.1,5.00,000.00,028.7,026.3,000.0,037.1,030.2,28.6,-002.8,0007.40,0004.12,0003.75
2023-07-07 18:55:00,SystemResetWarning,0832.0,5.01,000.00,028.8,026.6,000.0,037.2,030.3,28.5,-002.6,0007.47,0004.14,0003.74
2023-07-07 18:56:00,SystemResetWarning,0832.1,4.99,000.00,028.8,026.9,000.0,037.2,030.4,28.0,-000.2,0007.43,0004.11,0003.72
2023-07-07 18:57:00,SystemResetWarning,0832.1,4.99,000.00,028.8,027.2,000.0,037.2,030.5,29.0,0000.0,0007.40,0004.09,0003.70
2023-07-07 18:58:00,SystemResetWarning,0832.1,5.01,000.00,028.9,027.4,000.0,037.2,030.5,27.7,0000.0,0007.38,0004.07,0003.69
2023-07-07 18:59:00,SystemResetWarning,0832.2,5.00,000.00,028.9,027.6,000.0,037.3,030.6,28.1,0000.0,0007.38,0004.07,0003.68
